Miscellaneous Local Product
Issued by NWS North Platte, NE

Home | Current Version | Previous Version | Graphics & Text | Print | Product List | Glossary On
Versions: 1 2 3 4 5 6 7 8 9 10 11 12 13 14 15 16 17 18 19 20 21 22 23 24 25 26 27 28 29 30 31 32 33 34 35 36 37 38 39 40 41 42 43 44 45 46 47 48 49 50
000
AXUS43 KLBF 080710
MISLBF


WESTERN AND NORTH CENTRAL NEBRASKA HOURLY WEATHER ROUNDUP
NATIONAL WEATHER SERVICE NORTH PLATTE NE
100 AM CST THU DEC 08 2016

NOTE: "FAIR" INDICATES FEW OR NO CLOUDS BELOW 12,000 FEET WITH NO
SIGNIFICANT WEATHER AND/OR OBSTRUCTIONS TO VISIBILITY.

NOTE: STATIONS NOT REPORTING VARIABLES SUCH AS SKY/WEATHER OR
PRESSURE ARE PROVIDED BY RAWS AND APRS NETWORKS AND ARE NOT UNDER
NATIONAL WEATHER SERVICE QUALITY CONTROL.

...OBSERVATIONS IN AND NEAR THE EASTERN PANHANDLE OF NEBRASKA...

CITY           SKY/WX    TMP DP  RH WIND       PRES   REMARKS
PINE RIDGE     CLOUDY    -9 -13  83 CALM      30.50S
CHADRON        CLEAR      1  -6  72 W12       30.52R WCI -16
ALLIANCE       CLEAR     -3  -8  79 NW9       30.45R WCI -19
SIDNEY         CLEAR     -3  -9  75 W14       30.44F WCI -22
CRESCENT LAKE    N/A     -4  -9  78 NW6         N/A  WCI -16
$$

...OBSERVATIONS IN NORTHERN NEBRASKA AND FAR SOUTHERN SOUTH DAKOTA...

CITY           SKY/WX    TMP DP  RH WIND       PRES   REMARKS
WINNER         FAIR       7  -2  66 NW18G29   30.51R WCI -12
VALENTINE      CLEAR      5  -4  66 NW17      30.50S WCI -14
THEDFORD       CLEAR      3  -2  77 W10       30.51R WCI -12
AINSWORTH      CLEAR      6  -1  70 NW14G22   30.49S WCI -10
O`NEILL        CLEAR      9   0  68 NW22G30   30.48S WCI -11
ORD            CLEAR      9  -2  61 NW16      30.49S WCI  -8
BROKEN BOW     CLEAR      8  -1  66 NW17      30.50R WCI -10
VALENTINE NWR    N/A      5  -5  64 NW16G23     N/A  WCI -14
BUTTE            N/A      6  -1  73 W26G39      N/A  WCI -16
HALSEY           N/A      5  -4  66 W8          N/A  WCI  -8
CHAMBERS         N/A      7  -8  50 N8          N/A  WCI  -5
EWING            N/A      9   1  71 NW16G23     N/A  WCI  -8
$$

...OBSERVATIONS IN SOUTHWEST NEBRASKA AND FAR NORTHEAST COLORADO...

CITY           SKY/WX    TMP DP  RH WIND       PRES   REMARKS
HOLYOKE        FAIR       1  -6  71 W9        30.51S WCI -14
IMPERIAL       CLEAR      2  -6  69 NW13      30.52S WCI -15
OGALLALA       CLEAR      2  -4  73 NW5       30.51F WCI  -7
NORTH PLATTE   CLEAR      5  -2  72 W10       30.52S WCI -10
MCCOOK         CLEAR      2  -4  76 W15       30.55S WCI -17
LEXINGTON      CLEAR      8   2  73 NW12      30.52F WCI  -7
STAPLETON        N/A      2  -3  79 CALM        N/A
GOTHENBURG       N/A      6   0  74 W6          N/A  WCI  -4
CALLAWAY         N/A      6   0  76 NW18        N/A  WCI -13
$$

...OBSERVATIONS IN CENTRAL LINCOLN COUNTY AREA...

CITY           SKY/WX    TMP DP  RH WIND       PRES   REMARKS
N.P. AIRPORT   CLEAR      5  -2  72 W10       30.52S WCI -10
N.P. DOWNTOWN    N/A      4  -2  75 CALM        N/A
N.P. SOUTHEAST   N/A      4  -3  72 W3          N/A
N.P. HILLCREST   N/A      4  -1  79 NW8         N/A  WCI  -9
$$

...SOME OBSERVATIONS FROM AROUND THE REGION...

CITY           SKY/WX    TMP DP  RH WIND       PRES   REMARKS
LARAMIE        CLOUDY   -14 -18  82 CALM      30.21S
CHEYENNE       CLOUDY   -13 -18  78 W5        30.31S WCI -25
DENVER         CLOUDY    -4  -8  83 S10       30.38S WCI -21
AKRON          CLOUDY    -6 -11  79 W8        30.44S WCI -21
SCOTTSBLUFF    CLEAR     -6 -12  75 NW7       30.49R WCI -20
RAPID CITY     CLEAR      4  -6  63 N17       30.49S WCI -16
BISMARCK       LGT SNOW   5   1  83 NW23G29   30.50S FOG     WCI -17
PIERRE         MIX PCPN   8   1  73 NW31G38   30.50S WCI -15
SIOUX FALLS    CLOUDY     9   3  77 NW21G28   30.38R WCI -11
OMAHA          CLEAR     15   4  61 NW16G23   30.47S WCI  -1
GRAND ISLAND   CLEAR     11   2  67 NW17      30.51S WCI  -6
KANSAS CITY    CLEAR     19   7  59 NW10      30.46S WCI   7
WICHITA        CLEAR     19  14  81 NW10      30.56S WCI   7
OKLAHOMA CITY  CLOUDY    27  21  78 N21G26    30.53R WCI  13
DALLAS         CLOUDY    39  31  72 N21G30    30.38R WCI  29
AMARILLO       CLOUDY    20  16  84 N12       30.48R WCI   8
DODGE CITY     CLEAR     11   7  84 NW10      30.53F WCI  -3
HAYS           CLEAR     10   6  84 W9        30.58R WCI  -3
GOODLAND       CLEAR      1  -5  75 W13       30.49S WCI -17
$$




USA.gov is the U.S. government's official web portal to all federal, state and local government web resources and services.